Regional Weather Roundup
Issued by NWS

Home | Current Version | Previous Version | Text Only | Print | Product List | Glossary Off
Versions: 1 2 3 4 5 6 7 8 9 10 11 12 13 14 15 16 17 18 19 20 21 22 23 24 25 26 27 28 29 30 31 32 33 34 35 36 37 38 39 40 41 42 43 44 45 46 47 48 49 50

000
ASUS43 KLSX 282107
RWRMO

WEATHER SUMMARY FOR MISSOURI
NATIONAL WEATHER SERVICE SPRINGFIELD MO
300 PM CST FRI NOV 28 2014

NOTE: "FAIR" INDICATES FEW OR NO CLOUDS BELOW 12,000 FEET WITH NO
       SIGNIFICANT WEATHER AND/OR OBSTRUCTIONS TO VISIBILITY.
       CURRENT SKY AND/OR WEATHER CONDITIONS ARE NOT AVAILABLE FOR
       CHILLICOTHE AND FARMINGTON.

MOZ001>031-035>038-043-044-053-054-282200-
...NORTHERN AND WESTERN MISSOURI...

CITY           SKY/WX    TMP DP  RH WIND       PRES   REMARKS
KANSAS CTY INT PTSUNNY   56  33  42 S14       29.80F
KANSAS C DTWN  PTSUNNY   59  32  36 S14       29.81F
LEE`S SUMMIT   SUNNY     59  33  37 S10       29.82F
ST JOSEPH      PTSUNNY   56  32  40 S15       29.79F
CHILLICOTHE      N/A     53  35  50 S10       29.82F
KIRKSVILLE     PTSUNNY   51  34  52 S10       29.84F

$$
MOZ066>068-077>081-088>096-101>105-282200-
...SOUTHWEST MISSOURI...

CITY           SKY/WX    TMP DP  RH WIND       PRES   REMARKS
SPRINGFIELD    SUNNY     63  33  32 SW20G30   29.92F
JOPLIN         SUNNY     63  34  33 S18G26    29.90F

$$
MOZ032>034-039>042-045>050-055>058-069>072-282200-
...CENTRAL MISSOURI...

CITY           SKY/WX    TMP DP  RH WIND       PRES   REMARKS
COLUMBIA       PTSUNNY   58  34  40 S18       29.88F
JEFFERSON CITY MOSUNNY   59  33  37 S7        29.89F
ROLLA          SUNNY     54  33  45 S14       29.91F
SEDALIA        MOSUNNY   61  34  36 SW14      29.86F
WHITEMAN AFB   MOSUNNY   59  35  40 SW16      29.83F
WARRENSBURG    SUNNY     59  32  36 S13       29.83F
OSAGE BEACH    MOSUNNY   61  34  36 SW14      29.90F

$$
MOZ051-052-059>065-282200-
...EAST CENTRAL MISSOURI...

CITY           SKY/WX    TMP DP  RH WIND       PRES   REMARKS
ST LOUIS INTL  PTSUNNY   51  33  50 S12       29.96F
SPIRIT OF STL  SUNNY     53  33  46 S12G21    29.93F
ST CHARLES     SUNNY     49  37  63 S10       29.94F

$$
MOZ072>076-082>087-097>100-106>115-282200-
...SOUTH CENTRAL AND SOUTHEAST MISSOURI...

CITY           SKY/WX    TMP DP  RH WIND       PRES   REMARKS
CAPE GIRARDEAU SUNNY     47  34  60 S17G24    30.11F
FARMINGTON     SUNNY     48  34  57 S15G22    30.02F
POPLAR BLUFF   SUNNY     49  33  54 S14       30.08F
WEST PLAINS    SUNNY     54  32  43 S15G21    30.01F

$$


USA.gov is the U.S. government's official web portal to all federal, state and local government web resources and services.